TimeMDT,TemperatureF,Dew PointF,Humidity,Sea Level PressureIn,VisibilityMPH,Wind Direction,Wind SpeedMPH,Gust SpeedMPH,PrecipitationIn,Events,Conditions,WindDirDegrees,DateUTC
12:15 AM,44.6,30.2,57,30.36,10.0,NW,4.6,-,N/A,,Overcast,310,2013-05-12 06:15:00
12:35 AM,42.8,30.2,61,30.37,10.0,Calm,Calm,-,N/A,,Mostly Cloudy,0,2013-05-12 06:35:00
12:55 AM,42.8,30.2,61,30.37,10.0,Calm,Calm,-,N/A,,Scattered Clouds,0,2013-05-12 06:55:00
1:15 AM,41.0,30.2,65,30.37,10.0,Calm,Calm,-,N/A,,Clear,0,2013-05-12 07:15:00
1:35 AM,42.8,30.2,61,30.38,10.0,NNW,6.9,-,N/A,,Clear,340,2013-05-12 07:35:00
1:55 AM,39.2,30.2,70,30.38,10.0,NW,3.5,-,N/A,,Scattered Clouds,310,2013-05-12 07:55:00
2:15 AM,37.4,30.2,75,30.37,10.0,WSW,6.9,-,N/A,,Clear,250,2013-05-12 08:15:00
2:35 AM,37.4,28.4,70,30.37,10.0,West,5.8,-,N/A,,Clear,280,2013-05-12 08:35:00
2:55 AM,37.4,30.2,75,30.37,10.0,Calm,Calm,-,N/A,,Scattered Clouds,0,2013-05-12 08:55:00
3:35 AM,35.6,28.4,75,30.37,10.0,WNW,3.5,-,N/A,,Scattered Clouds,290,2013-05-12 09:35:00
3:55 AM,33.8,28.4,81,30.37,10.0,WNW,9.2,-,N/A,,Scattered Clouds,300,2013-05-12 09:55:00
4:15 AM,35.6,28.4,75,30.37,10.0,WNW,6.9,-,N/A,,Clear,290,2013-05-12 10:15:00
4:35 AM,33.8,28.4,81,30.37,10.0,NW,3.5,-,N/A,,Scattered Clouds,310,2013-05-12 10:35:00
4:55 AM,33.8,28.4,81,30.37,10.0,WNW,4.6,-,N/A,,Mostly Cloudy,290,2013-05-12 10:55:00
5:15 AM,33.8,28.4,81,30.37,10.0,WNW,4.6,-,N/A,,Mostly Cloudy,300,2013-05-12 11:15:00
5:35 AM,32.0,28.4,87,30.37,10.0,West,3.5,-,N/A,,Mostly Cloudy,280,2013-05-12 11:35:00
5:55 AM,33.8,28.4,81,30.37,10.0,NW,6.9,-,N/A,,Mostly Cloudy,320,2013-05-12 11:55:00
6:15 AM,33.8,28.4,81,30.37,10.0,WNW,5.8,-,N/A,,Mostly Cloudy,300,2013-05-12 12:15:00
6:35 AM,35.6,30.2,81,30.37,10.0,West,5.8,-,N/A,,Scattered Clouds,280,2013-05-12 12:35:00
6:55 AM,37.4,30.2,75,30.38,10.0,WNW,3.5,-,N/A,,Scattered Clouds,290,2013-05-12 12:55:00
7:15 AM,41.0,32.0,70,30.39,10.0,West,3.5,-,N/A,,Scattered Clouds,280,2013-05-12 13:15:00
7:35 AM,41.0,32.0,70,30.39,10.0,WNW,3.5,-,N/A,,Clear,290,2013-05-12 13:35:00
7:55 AM,44.6,32.0,61,30.39,10.0,Calm,Calm,-,N/A,,Clear,0,2013-05-12 13:55:00
8:15 AM,46.4,32.0,57,30.39,10.0,Calm,Calm,-,N/A,,Clear,0,2013-05-12 14:15:00
8:35 AM,50.0,32.0,50,30.38,10.0,Calm,Calm,-,N/A,,Clear,0,2013-05-12 14:35:00
8:55 AM,51.8,32.0,47,30.38,10.0,Calm,Calm,-,N/A,,Clear,0,2013-05-12 14:55:00
9:15 AM,55.4,32.0,41,30.38,10.0,Calm,Calm,-,N/A,,Clear,0,2013-05-12 15:15:00
9:35 AM,59.0,32.0,36,30.38,10.0,Calm,Calm,-,N/A,,Clear,0,2013-05-12 15:35:00
9:55 AM,60.8,32.0,34,30.37,10.0,WNW,3.5,-,N/A,,Clear,300,2013-05-12 15:55:00
10:15 AM,62.6,32.0,32,30.37,10.0,NW,10.4,-,N/A,,Clear,320,2013-05-12 16:15:00
10:35 AM,62.6,32.0,32,30.36,10.0,NW,5.8,-,N/A,,Clear,310,2013-05-12 16:35:00
10:55 AM,64.4,32.0,30,30.36,10.0,NW,6.9,23.0,N/A,,Clear,310,2013-05-12 16:55:00
11:15 AM,66.2,32.0,28,30.35,10.0,NW,12.7,23.0,N/A,,Clear,320,2013-05-12 17:15:00
11:35 AM,68.0,30.2,24,30.35,10.0,NW,13.8,21.9,N/A,,Clear,310,2013-05-12 17:35:00
11:55 AM,68.0,28.4,23,30.34,10.0,NW,19.6,26.5,N/A,,Clear,310,2013-05-12 17:55:00
12:15 PM,68.0,26.6,21,30.34,10.0,NW,18.4,27.6,N/A,,Clear,320,2013-05-12 18:15:00
12:35 PM,69.8,26.6,20,30.33,10.0,NW,23.0,27.6,N/A,,Clear,320,2013-05-12 18:35:00
12:55 PM,69.8,28.4,21,30.33,10.0,WNW,12.7,31.1,N/A,,Clear,300,2013-05-12 18:55:00
1:15 PM,69.8,28.4,21,30.32,10.0,NW,16.1,25.3,N/A,,Clear,310,2013-05-12 19:15:00
1:35 PM,69.8,28.4,21,30.32,10.0,NW,16.1,25.3,N/A,,Clear,310,2013-05-12 19:35:00
1:55 PM,71.6,28.4,20,30.31,10.0,WNW,17.3,28.8,N/A,,Clear,290,2013-05-12 19:55:00
2:15 PM,71.6,28.4,20,30.31,10.0,NNW,17.3,26.5,N/A,,Clear,330,2013-05-12 20:15:00
2:35 PM,71.6,26.6,19,30.31,10.0,WNW,15.0,34.5,N/A,,Scattered Clouds,300,2013-05-12 20:35:00
2:55 PM,73.4,26.6,18,30.31,10.0,NW,20.7,27.6,N/A,,Clear,310,2013-05-12 20:55:00
3:15 PM,71.6,28.4,20,30.31,10.0,NW,16.1,27.6,N/A,,Clear,310,2013-05-12 21:15:00
3:35 PM,71.6,28.4,20,30.29,10.0,NW,9.2,28.8,N/A,,Clear,320,2013-05-12 21:35:00
3:55 PM,71.6,30.2,22,30.29,10.0,WNW,16.1,27.6,N/A,,Clear,300,2013-05-12 21:55:00
4:15 PM,71.6,28.4,20,30.29,10.0,WNW,16.1,40.3,N/A,,Clear,300,2013-05-12 22:15:00
4:35 PM,71.6,28.4,20,30.29,10.0,NW,16.1,31.1,N/A,,Clear,310,2013-05-12 22:35:00
4:55 PM,71.6,28.4,20,30.29,10.0,NW,20.7,28.8,N/A,,Clear,310,2013-05-12 22:55:00
5:15 PM,71.6,30.2,22,30.28,10.0,WNW,20.7,25.3,N/A,,Scattered Clouds,300,2013-05-12 23:15:00
5:35 PM,71.6,28.4,20,30.27,10.0,WNW,13.8,27.6,N/A,,Clear,300,2013-05-12 23:35:00
5:55 PM,71.6,30.2,22,30.27,10.0,West,17.3,26.5,N/A,,Clear,280,2013-05-12 23:55:00
6:15 PM,69.8,30.2,23,30.27,10.0,NNW,16.1,20.7,N/A,,Clear,330,2013-05-13 00:15:00
6:35 PM,69.8,30.2,23,30.27,10.0,WNW,16.1,19.6,N/A,,Clear,290,2013-05-13 00:35:00
6:55 PM,69.8,30.2,23,30.27,10.0,WNW,15.0,24.2,N/A,,Clear,290,2013-05-13 00:55:00
7:15 PM,69.8,30.2,23,30.26,10.0,WNW,13.8,24.2,N/A,,Clear,290,2013-05-13 01:15:00
7:35 PM,68.0,30.2,24,30.27,10.0,WNW,11.5,15.0,N/A,,Clear,300,2013-05-13 01:35:00
7:55 PM,64.4,30.2,28,30.27,10.0,WNW,9.2,-,N/A,,Clear,300,2013-05-13 01:55:00
8:15 PM,62.6,32.0,32,30.27,10.0,WNW,5.8,-,N/A,,Clear,290,2013-05-13 02:15:00
8:35 PM,59.0,30.2,34,30.27,10.0,NW,5.8,-,N/A,,Clear,310,2013-05-13 02:35:00
8:55 PM,55.4,32.0,41,30.28,10.0,NW,6.9,-,N/A,,Clear,310,2013-05-13 02:55:00
9:15 PM,57.2,32.0,38,30.29,10.0,WNW,6.9,-,N/A,,Clear,300,2013-05-13 03:15:00
9:35 PM,55.4,32.0,41,30.29,10.0,WNW,6.9,-,N/A,,Scattered Clouds,300,2013-05-13 03:35:00
9:55 PM,53.6,32.0,44,30.30,10.0,WNW,4.6,-,N/A,,Scattered Clouds,300,2013-05-13 03:55:00
10:15 PM,50.0,32.0,50,30.31,10.0,Calm,Calm,-,N/A,,Clear,0,2013-05-13 04:15:00
10:35 PM,50.0,32.0,50,30.31,10.0,Calm,Calm,-,N/A,,Scattered Clouds,0,2013-05-13 04:35:00
10:55 PM,50.0,32.0,50,30.32,10.0,NNW,3.5,-,N/A,,Mostly Cloudy,330,2013-05-13 04:55:00
11:15 PM,46.4,32.0,57,30.32,10.0,Calm,Calm,-,N/A,,Scattered Clouds,0,2013-05-13 05:15:00
11:35 PM,46.4,32.0,57,30.32,10.0,Calm,Calm,-,N/A,,Clear,0,2013-05-13 05:35:00
11:55 PM,46.4,32.0,57,30.32,10.0,Calm,Calm,-,N/A,,Clear,0,2013-05-13 05:55:00